Location: Il Ritiro
(43.4167°N, 13.1333°E)
Time: 16:23:47
(UTC+00:00)

Landsat 7 - Pass Details

Date: 05 July 2020
Orbit: 701 x 703 km, 98.1° (Epoch: 10 August)

Event Time Altitude Azimuth Distance (km) Brightness Sun altitude
Exits shadow 19:42:53 10° 141° (SE) 2,167 5.7 -8.3°
Reaches altitude 10° 19:42:53 10° 141° (SE) 2,166 5.7 -8.3°
Maximum altitude 19:47:23 44° 71° (ENE) 974 4.4 -8.9°
Drops below altitude 10° 19:51:54 10° 360° (N) 2,180 7.0 -9.5°
Sets 19:54:14 0° 354° (N) 3,103 8.0 -9.8°
